Location: Gaspur (historical)
(33.7814°N, 118.2212°W)
Time: 11:41:40
(UTC+00:00)

ARGOS Delta rocket - Visible Passes

Search period start: 06 March 2021 00:00
Search period end: 16 March 2021 00:00
Orbit: 636 x 836 km, 96.5° (Epoch: 05 March)

Date Brightness Start Highest point End Pass type
(mag) Time Alt. Az. Time Alt. Az. Time Alt. Az.
11 Mar 6.8 11:08:38 10° N 11:08:38 10° N 11:08:38 10° N visible
13 Mar 6.7 11:17:02 10° N 11:17:09 11° N 11:17:09 11° N visible
15 Mar 6.6 11:25:30 10° N 11:25:39 11° N 11:25:39 11° N visible
